Полтавская

Россия / Краснодарский край     45°22′00″N   38°12′41″E
темп.,
°C
ветер,
м/с
пор.,
м/с
влажн.,
%
обл.,
%
осадки,
мм/ч
давл.,
гПа
погр.,
м
12 апреля, пн
пн1200:00+9вюв2494100 0.0 1019160
03:00+8ююз1195100 0.1 101924
06:00+9ююз3593100 0.0 1020163
09:00+10ююз3688100 0.0 1021473
12:00+12ююз457099 0.3 1021962
15:00+13ююв2366100 0.3 1021916
18:00+11юз3577100 0.1 1022232
21:00+9юз358384 0.1 1023190
13 апреля, вт
вт1300:00+7ююз359179 0.0 102384
03:00+7ююз3392100 0.0 102349
06:00+7ю2392100 0.0 102375
09:00+11ю227498 0.0 1023460
12:00+12ююв3272100 0.0 1023527
15:00+13юв2268100 0.0 1022606
18:00+11всв2278100 0.0 102161
21:00+10всв2282100 0.0 102136
14 апреля, ср
ср1400:00+8всв129174 0.0 102011
03:00+8всв2292100 0.0 101917
06:00+8в1191100 0.0 101910
09:00+11ююв117893 0.0 1019379
12:00+15ююв2367100 0.1 10181138
15:00+13ююз667486 0.4 1018685
18:00+14з237129 0.0 1017551
21:00+10ссз118577 0.0 101711
15 апреля, чт
чт1500:00+9в228942 0.0 101618
03:00+8вюв22902 0.0 101625
06:00+7вюв339017 0.0 101549
09:00+13вюв457339 0.0 1015406
12:00+18ю3454100 0.0 10141177
15:00+13зюз2478100 0.9 1015233
18:00+15ююв12705 0.4 1014346
21:00+11зюз2387100 0.4 101532
16 апреля, пт
пт1600:00+9зюз3792100 0.0 1015188
03:00+10юз379057 0.1 1016351
06:00+9юз6976100 0.0 1016862
09:00+10ююз71076100 0.0 10171005
12:00+12юз81065100 0.0 10171229
15:00+12юз6967100 0.0 10171418
18:00+11ююз697117 0.1 1017891
21:00+8юз410885 0.1 1018267